Location: CARMA
(37.2805°N, 118.1419°W)
Time: 19:00:02
(UTC-08:00)

Daily predictions for brighter satellites

Satellite Brightness Start Highest point End
(mag) Time Altitude Azimuth Time Altitude Azimuth Time Altitude Azimuth
COSMO-SKYMED 1 3.0 17:30:30 10° NNE 17:34:38 42° E 17:38:44 10° S
AQUARIUS 4.5 17:32:01 10° S 17:36:29 74° WSW 17:41:00 10° NNW
Cosmos 2237 Rocket 2.8 17:31:25 10° SW 17:36:57 61° WNW 17:42:34 10° NNE
Cosmos 1666 Rocket 4.5 17:36:43 10° SSE 17:40:23 28° E 17:44:07 10° NNE
BREEZE-M DEB (TANK) 4.4 17:38:11 10° WNW 17:42:17 47° SW 17:48:53 10° SSE
Thor Agena Rocket 3.8 17:38:22 10° N 17:43:34 74° WNW 17:48:41 10° SSW
Cosmos 1538 Rocket 4.3 17:39:58 10° S 17:45:03 49° ESE 17:50:11 10° NNE
SPOT 3 Rocket 3.9 17:40:11 10° S 17:45:19 73° WSW 17:50:30 10° NNW
SL-16 R/B 2.2 17:39:52 10° S 17:45:27 66° ESE 17:51:04 10° NNE
SL-14 R/B 3.8 17:41:38 10° SSW 17:45:31 64° W 17:49:29 10° N
Meteor 1-27 4.3 17:41:29 10° N 17:47:20 73° E 17:53:09 10° SSE
Cosmos 1484 Rocket 2.8 17:43:30 10° SSE 17:47:23 65° ENE 17:51:22 10° N
Meteor 2-10 4.0 17:43:38 10° N 17:48:47 73° E 17:54:04 10° SSE
Cosmos 1340 Rocket 2.7 17:45:49 10° S 17:49:44 82° E 17:53:40 10° N
Resurs 01 Rocket 3.4 17:50:00 10° E 17:51:48 12° ENE 17:53:36 10° NE
Cosmos 304 Rocket 3.8 17:48:55 10° SSW 17:53:44 87° WNW 17:58:34 10° NNE
Meteor 1-28 Rocket 3.4 17:52:53 10° NNE 17:56:31 49° E 18:00:08 10° S
Tiangong 1 2.6 17:56:15 10° SSW 17:58:37 22° SE 18:00:15 14° ESE
Lacrosse 4 Rocket 2.7 17:56:51 10° N 17:59:51 20° NE 18:01:45 15° E
Cosmos 2297 3.7 17:55:02 10° NNW 18:00:44 67° ENE 18:06:26 10° SSE
Aureole 2 Rocket 4.3 17:58:03 10° SW 18:01:31 36° WNW 18:05:18 10° N
Cosmos 1151 Rocket 4.3 17:57:27 10° NNW 18:01:33 44° W 18:05:38 10° SSW
Cosmos 1869 4.4 18:03:16 10° NNE 18:06:36 24° ENE 18:09:55 10° SE
METEOR-M 4.3 18:06:42 10° SE 18:11:49 48° ENE 18:16:57 10° N
Cosmos 2058 4.3 18:09:11 10° SSW 18:13:03 41° W 18:16:57 10° N
Cosmos 1470 Rocket 4.5 18:09:53 10° SE 18:13:28 26° E 18:15:28 18° NE
Cosmos 2279 Rocket 4.3 18:08:11 10° N 18:14:24 74° W 18:20:36 10° S
Cosmos 1805 Rocket 3.9 18:14:01 10° SSW 18:18:26 68° W 18:22:54 10° N
NOSS 3-1 (C) 4.5 18:14:28 10° SSE 18:18:47 22° ESE 18:20:20 20° E
Cosmos 773 Rocket 3.9 18:14:16 10° S 18:19:22 68° ESE 18:24:33 10° NNE
NOAA 12 4.0 18:14:55 10° SSE 18:20:04 62° ENE 18:25:16 10° N
Cosmos 1461 4.3 18:16:52 10° WSW 18:20:42 35° NW 18:24:29 10° NNE
Cosmos 1626 2.3 18:18:55 10° SSW 18:22:39 73° W 18:26:24 10° N
SKYMED 2 4.4 18:18:29 10° N 18:22:42 51° WNW 18:26:54 10° SSW
Cosmos 1943 4.4 18:19:31 10° SSE 18:23:36 21° E 18:23:49 21° E
Cosmos 2242 Rocket 3.9 18:19:32 10° N 18:23:46 43° E 18:28:00 10° SSE
ATLAS 5 CENTAUR R/B 4.3 18:28:25 10° NNE 18:28:57 10° NNE 18:28:57 10° NNE
Sich 1 3.2 18:26:44 10° S 18:31:11 78° W 18:35:37 10° N
Nadezhda 4 Rocket 4.0 18:25:05 10° S 18:31:21 88° E 18:37:42 10° N
USA 215 3.6 18:28:14 21° E 18:32:16 44° NE 18:38:24 10° NW
Cosmos 1356 Rocket 4.0 18:29:05 10° SSW 18:33:00 56° W 18:36:56 10° N
Lacrosse 5 rocket 3.5 18:30:42 10° WNW 18:33:56 25° SW 18:37:18 10° S
Coronas F rocket 1.0 18:31:42 10° SSW 18:34:05 73° W 18:34:09 72° WNW
Cosmos 2026 Rocket 4.4 18:29:38 10° SSE 18:35:13 36° E 18:40:45 10° NNE
Cosmos 2112 Rocket 4.4 18:31:00 10° S 18:35:49 40° ESE 18:37:38 30° ENE
ALOS 2.5 18:35:30 10° SE 18:39:54 44° ENE 18:44:20 10° N
Aureole 1 Rocket 3.9 18:36:05 10° SSW 18:41:21 84° WNW 18:48:26 10° NNE
Cosmos 1633 Rocket 3.4 18:37:21 10° SSW 18:41:44 67° W 18:46:07 10° N
BREEZE M DEB (TANK) 2.0 18:40:52 10° NW 18:42:28 43° NW 18:42:28 43° NW
Delta 2 Rocket 4.5 18:44:27 10° SSW 18:46:48 22° SSE 18:46:48 22° SSE
Cosmos 1455 2.8 18:43:41 10° NNW 18:47:25 57° W 18:51:10 10° S
Cosmos 1603 3.6 18:44:40 10° SSW 18:50:16 83° ESE 18:54:02 22° NNE
Cosmos 292 Rocket 3.6 18:45:37 10° SSW 18:50:21 80° ESE 18:52:44 30° NNE
FengYun 1-2 T 4.1 18:47:47 10° SSE 18:53:16 65° ENE 18:58:44 10° N
Cosmos 1092 Rocket 4.0 18:47:30 10° S 18:53:51 86° W 19:00:14 10° N
BREEZE-M DEB (TANK) 4.3 18:54:27 10° WNW 18:55:53 18° NNW 18:55:53 18° NNW
SJ-6B 3.5 18:54:49 10° S 18:58:50 58° W 19:02:56 10° NNW
Spot 2 Rocket 3.3 19:03:13 10° SSE 19:08:15 79° ENE 19:13:18 10° N
Iridium 4 Rocket 3.8 19:07:27 10° SSW 19:11:51 52° W 19:16:00 10° N
Cosmos 2195 Rocket 4.4 19:10:50 10° S 19:16:57 86° W 19:23:08 10° N
USA 229 DEB 4.4 19:10:55 10° SW 19:17:34 52° NW 19:22:08 21° NNE
USA 229 4.3 19:11:00 10° SW 19:17:40 52° NW 19:22:11 21° NNE
Centaur AC-119 4.3 19:16:54 10° SW 19:18:32 21° S 19:18:32 21° S
Cosmos 2369 Rocket 3.4 19:21:52 10° NNW 19:24:42 29° N 19:24:42 29° N
Resurs 01 Rocket 2.1 19:23:21 10° S 19:27:44 59° W 19:32:08 10° NNW
NOSS 3-1 (A) 3.7 19:25:36 10° SSW 19:29:52 49° S 19:29:52 49° S
Meteor 2-20 Rocket 4.4 19:25:30 10° S 19:30:40 64° SSE 19:30:40 64° SSE
Tiangong 1 4.5 19:31:35 10° W 19:31:52 12° W 19:31:52 12° W
Lacrosse 4 Rocket 3.1 19:34:59 10° NW 19:38:15 31° W 19:38:15 31° W
Cosmos 1655 Rocket 4.4 19:45:09 10° SSW 19:51:26 62° W 19:54:27 32° NNW
CZ-4C R/B 4.5 19:51:42 10° NNW 19:53:53 18° N 19:53:53 18° N
Cosmos 1943 4.3 20:01:45 10° SW 20:05:44 39° WSW 20:05:44 39° WSW
NOSS 3-1 (C) 4.3 20:03:26 10° SW 20:07:48 44° W 20:07:48 44° W
USA 215 3.8 20:15:37 51° WSW 20:15:37 51° WSW 20:21:31 10° NW
